Regional Weather Roundup
Issued by NWS

Home | Current Version | Previous Version | Graphics & Text | Print | Product List | Glossary On
Versions: 1 2 3 4 5 6 7 8 9 10 11 12 13 14 15 16 17 18 19 20 21 22 23 24 25 26 27 28 29 30 31 32 33 34 35 36 37 38 39 40 41 42 43 44 45 46 47 48 49 50
000
ASUS43 KMPX 301510
RWRMN
WEATHER ROUNDUP FOR MINNESOTA
NATIONAL WEATHER SERVICE TWIN CITIES/CHANHASSEN MN
1000 AM CDT THU MAR 30 2017


NOTE: "FAIR" INDICATES FEW OR NO CLOUDS BELOW 12,000 FEET WITH NO
SIGNIFICANT WEATHER AND/OR OBSTRUCTIONS TO VISIBILITY. N/A MEANS
CURRENT SKY AND/OR WEATHER CONDITIONS ARE NOT AVAILABLE.

MNZ060>063-068>070-301600-
   Twin Cities Metro

CITY           SKY/WX    TMP DP  RH WIND       PRES   REMARKS
TWIN CITIES    CLOUDY    40  34  79 NE14      29.91S
ST PAUL        CLOUDY    40  35  83 NE12      29.92F
CRYSTAL        CLOUDY    40  33  76 NE13      29.91F
BLAINE         CLOUDY    43  36  75 NE10      29.92F
LAKEVILLE      CLOUDY    37  37 100 NE12G18   29.88F
EDEN PRAIRIE   CLOUDY    41  35  79 NE13      29.89S
SOUTH ST PAUL  CLOUDY    40  36  87 E8        29.90F
LAKE ELMO      CLOUDY    39  36  87 NE13      29.92S
$$
MNZ001>005-007-008-013>017-022>024-027-028-301600-
   Northwest Minnesota

CITY           SKY/WX    TMP DP  RH WIND       PRES   REMARKS
BEMIDJI        FOG       32  32 100 CALM      29.96S VSB 1/4
HALLOCK        MOSUNNY   41  37  87 S15       29.91S
ROSEAU         PTSUNNY   41  36  81 S6        29.94F
WARROAD        CLOUDY    41  37  87 SW7       29.95F
THIEF RVR FALL FOG       36  35  96 S8        29.95F VSB 1/2
CROOKSTON      SUNNY     41  37  87 S12       29.95S
FOSSTON        FOG       36  36 100 CALM      29.96F VSB 1/4
DETROIT LAKES  CLOUDY    37  37 100 E5        29.95S FOG
MOORHEAD       SUNNY     39  37  93 CALM      29.94F
PARK RAPIDS    SUNNY     37  31  78 VRB3      29.93F
MAHNOMEN       CLOUDY    36  36 100 E6        29.95S FOG
$$
MNZ006-009>011-018-025>026-301600-
   North Central Minnesota

CITY           SKY/WX    TMP DP  RH WIND       PRES   REMARKS
BAUDETTE       MOSUNNY   39  32  76 SE5       29.96F
FLAG ISLAND    CLOUDY    34  30  86 S9        29.95F WCI  26
INTL FALLS     SUNNY     37  28  70 CALM      29.99F
WASKISH        SUNNY     43  34  70 SE3       29.97F
BIG FORK       SUNNY     37  30  75 CALM      29.98F
LONGVILLE      CLOUDY    30  30 100 E3        29.97S FOG
GRAND RAPIDS   FOG       30  28  92 SE6       30.00F VSB 1/2 WCI  24
CRANE LAKE     SUNNY     34  27  75 CALM      30.03F
ORR            SUNNY     37  27  65 CALM      29.97F
COOK           PTSUNNY   37  28  70 NE3       30.00F
WALKER         FOG       29  28  98 E5        29.96F VSB 1/2 WCI  24
$$
MNZ012-019>021-037-301600-
   Northeast Minnesota

CITY           SKY/WX    TMP DP  RH WIND       PRES   REMARKS
DULUTH         MOSUNNY   38  31  76 E12       29.99F
ELY            SUNNY     39  28  65 SE5       30.01S
HIBBING        SUNNY     35  30  82 E5        30.00S WCI  31
EVELETH        SUNNY     39  29  66 SE5       30.01S
DULUTH HARBOR  CLOUDY    36  34  93 NE15      30.04S
TWO HARBORS    SUNNY     43  32  65 NE10      30.00S
SILVER BAY     CLOUDY    37  30  75 NE13      30.02S
GRAND MARAIS     N/A     38  29  70 NE10      30.07F
G MARAIS ARPRT PTSUNNY   34  19  55 E7        30.03S WCI  28
$$
MNZ029>031-032-039>041-046>048-054>057-064-301600-
   West Central Minnesota

CITY           SKY/WX    TMP DP  RH WIND       PRES   REMARKS
FERGUS FALLS   SUNNY     43  36  75 SE8       29.96S
WHEATON        MOSUNNY   45  36  70 E14       29.92F
MORRIS         SUNNY     43  37  81 E21       29.90F
ALEXANDRIA     MOSUNNY   42  33  70 E16       29.92F
ELBOW LAKE     FAIR      43  35  74 SE14      29.92S
WADENA         SUNNY     39  34  81 E7        29.93S
GLENWOOD       PTSUNNY   43  36  75 E16       29.92S
APPLETON       CLOUDY    43  37  81 E13G20    29.91S
BENSON         PTSUNNY   45  34  65 SE10G20   29.92F
ORTONVILLE     CLOUDY    39  36  87 E14       29.90F
MADISON        CLOUDY    43  43 100 E15       29.90F
WILLMAR        CLOUDY    41  36  81 E16       29.91F
$$
MNZ033>034-036-042>043-049>051-058-059-301600-
   Central Minnesota

CITY           SKY/WX    TMP DP  RH WIND       PRES   REMARKS
ST CLOUD       CLOUDY    38  31  76 E10G17    29.93F
SAUK CENTRE    CLOUDY    40  33  77 E13G20    29.92F
PAYNESVILLE    CLOUDY    39  33  78 E13       29.92F
AITKIN         CLOUDY    36  30  80 NE8       29.96F FOG
PINE RIVER     FOG       32  32 100 CALM      29.99F VSB 1/4
BRAINERD       CLOUDY    35  32  88 NE6       29.96F WCI  30
STAPLES        SUNNY     41  32  70 E8        29.94S
LONG PRAIRIE   CLOUDY    39  32  75 NE10      29.93F
LITTLE FALLS   CLOUDY    37  32  81 E7        29.94F
LITCHFIELD     CLOUDY    41  36  81 E12G17    29.91F
BUFFALO        CLOUDY    38  32  79 NE12      29.93F
MAPLE LAKE     CLOUDY    40  34  80 NE10      29.92F
HUTCHINSON     CLOUDY    40  38  92 NE13      29.90F
$$
MNZ037-044-045-052-053-301600-
   East Central Minnesota

CITY           SKY/WX    TMP DP  RH WIND       PRES   REMARKS
PRINCETON      CLOUDY    39  30  70 NE7       29.94F
MORA           CLOUDY    36  30  80 E7        29.98S
CAMBRIDGE      CLOUDY    39  28  65 NE6       29.93F
RUSH CITY      CLOUDY    38  30  72 NE7       29.95F
MOOSE LAKE     CLOUDY    36  32  87 NE6       29.98S
CLOQUET        CLOUDY    34  30  86 E10       30.00S WCI  26
MCGREGOR       MOSUNNY   37  34  87 E6        29.98F
$$
MNZ071>073-080-081-089-090-097-098-301600-
   Southwest Minnesota

CITY           SKY/WX    TMP DP  RH WIND       PRES   REMARKS
MONTEVIDEO     CLOUDY    41  37  87 SE16      29.90S
GRANITE FALLS  CLOUDY    42  37  83 NE15G21   29.91S
CANBY          CLOUDY    41  38  90 E13       29.90F
MARSHALL       CLOUDY    39  37  92 E16       29.88F
REDWOOD FALLS  CLOUDY    41  36  82 E14G20    29.87F
OLIVIA         CLOUDY    39  36  87 E12G18    29.88F
PIPESTONE      CLOUDY    37  34  87 E10G18    29.84S
WINDOM         CLOUDY    37  37 100 NE14      29.84F FOG
WORTHINGTON    CLOUDY    37  36  96 NE15      29.83F
JACKSON          N/A     36  36 100 NE14      29.83F FOG
TRACY          CLOUDY    39  38  97 NE12      29.86F FOG
SLAYTON        CLOUDY    36  36  99 NE13      29.85F FOG
$$
MNZ065>067-074>077-082>085-091>093-301600-
   South Central Minnesota

CITY           SKY/WX    TMP DP  RH WIND       PRES   REMARKS
MANKATO        CLOUDY    39  36  89 NE15      29.86S
NEW ULM        CLOUDY    37  37 100 NE12      29.87F
ST JAMES       CLOUDY    37  37 100 NE6       29.86F
FAIRMONT       CLOUDY    38  36  92 NE15      29.83F
GLENCOE        CLOUDY    40  40  99 NE9       29.89F
FARIBAULT      CLOUDY    37  37 100 N9        29.86F
OWATONNA       CLOUDY    37  36  93 NE16      29.83F
WASECA         CLOUDY    36  34  93 NE13G23   29.85S
ALBERT LEA     CLOUDY    37  37 100 E17       29.80F
$$
MNZ078>079-086>088-094>096-301600-
   Southeast Minnesota

CITY           SKY/WX    TMP DP  RH WIND       PRES   REMARKS
ROCHESTER      CLOUDY    37  36  96 NE14      29.83F
RED WING       CLOUDY    39  36  87 E8G16     29.88F
STANTON        CLOUDY    39  36  89 NE15G21   29.85F
DODGE CENTER   CLOUDY    37  36  93 E20       29.81F FOG
WINONA         CLOUDY    37  36  93 E13       29.87F FOG
AUSTIN         CLOUDY    37  36  93 E20G29    29.79F
PRESTON        CLOUDY    36  34  93 E13       29.82S FOG
$$
ABBREVIATIONS USED IN REMARKS
   TC - TEMPERATURES IN CELSIUS
  WCI - WIND CHILL INDEX
   HX - HEAT INDEX
  VSB - VISIBILITY
$$




USA.gov is the U.S. government's official web portal to all federal, state and local government web resources and services.